COSMOS 2565

导读 | 豆包AI

COSMOS 2565(宇宙-2565)是俄罗斯(CIS)于2022年11月30日由联盟2.1b运载火箭从普列谢茨克航天发射场发射的军用卫星,属于Liana计划下的Lotos-S电子信号侦察卫星,用于接替旧型号卫星,承担无线电信号拦截、军事情报收集任务。入轨时处于转移轨道,远地点约900km,近地点约239km,后续计划变轨至工作轨道运行。

基本信息
目录编号:
54381
目录名称:
COSMOS 2565
国际标识:
2022-163A
轨道中心:
EARTH
卫星名称:
COSMOS 2565
卫星全名:
--
卫星状态:
在轨 (已飞行1247 天)
发射日期:
2022-11-30 UTC
国别 :
俄罗斯(独联体) (CIS)
星等 :
--
轨道信息
数据来源 国际轨道数据
星历时间: 2026-04-30T13:52:54+0800
9小时前
查看轨道信息
半长轴: 7283.47km
偏心率: 0.0006295
轨道倾角: 67.149°
近地点辐角 276.091°
升交点赤经 223.775°
平近点角 83.946°
近地点: 900.748km
远地点: 909.918km
周期: 103.102分钟
每日圈数: 13.966747
详细信息
使用方式:
暂无
2D轨道图
3D轨道图
轨道高度分析图
轨道倾角分析图
轨道综合分析图
查看轨道综合分析图